Minneapolis, MN

12:32 PM CST on February 10, 2016 (GMT -0600)
Minneapolis-Saint Paul International

Weather History for KMSP - September, 2013

Change the Weather History Date:

Thursday, September 12, 2013

  Actual Average Record
Temperature  
Mean Temperature 67 °F 64 °F  
Max Temperature 76 °F 73 °F 94 °F (1948)
Min Temperature 57 °F 54 °F 36 °F (1940)
Degree Days  
Heating Degree Days 0 4  
Month to date heating degree days 3 31  
Since 1 July heating degree days 11 50  
Cooling Degree Days 2 3  
Month to date cooling degree days 104 42  
Year to date cooling degree days 953 723  
Growing Degree Days 16 (Base 50)    
Moisture  
Dew Point 48 °F    
Average Humidity 57    
Maximum Humidity 80    
Minimum Humidity 33    
Precipitation  
Precipitation 0.00 in 0.11 in 4.96 in (1903)
Month to date precipitation 0.02 1.30  
Year to date precipitation 26.46 23.47  
Snow  
Snow 0.00 in 0.00 in 0.00 in ()
Month to date snowfall 0.0 0.0  
Since 1 July snowfall T 0.0  
Since 1 September snowfall 0.0 0.0  
Snow Depth 0.00 in    
Sea Level Pressure  
Sea Level Pressure 30.16 in    
Wind  
Wind Speed 11 mph (NNW)    
Max Wind Speed 22 mph    
Max Gust Speed 29 mph    
Visibility 10 miles    
Events      
T = Trace of Precipitation, MM = Missing Value Source: NWS Daily Summary

Daily Weather History Graph

Daily Weather History Graph

Search for Another Location

Airport or City:

Trip Planner

Search our weather history database for the weather conditions in past years. The results will help you decide how hot, cold, wet, or windy it might be!

Date:

Astronomy

Sep. 12, 2013 Rise Set
Actual Time 6:48 AM CDT 7:28 PM CDT
Civil Twilight 6:18 AM CDT 7:58 PM CDT
Nautical Twilight 5:43 AM CDT 8:33 PM CDT
Astronomical Twilight 5:07 AM CDT 9:09 PM CDT
Moon 2:33 PM CDT (9/12) No Moon Set
Length of Visible Light 13h 39m
Length of Day
12h 40m
Waxing Crescent, 50% of the Moon is Illuminated
Sep 12
Waxing Crescent
Sep 12
First Quarter
Sep 19
Full
Sep 26
Last Quarter
Oct 4
New

Hourly Weather History & Observations

Time (CDT) Temp. Dew Point Humidity Pressure Visibility Wind Dir Wind Speed Gust Speed Precip Events Conditions
12:53 AM 68.0 °F 48.9 °F 50% 30.05 in 10.0 mi NW 9.2 mph - N/A   Clear
1:53 AM 66.0 °F 50.0 °F 56% 30.08 in 10.0 mi NNW 11.5 mph - N/A   Clear
2:53 AM 63.0 °F 51.1 °F 65% 30.09 in 10.0 mi NW 8.1 mph 19.6 mph N/A   Clear
3:53 AM 61.0 °F 51.1 °F 70% 30.11 in 10.0 mi NNW 9.2 mph - N/A   Clear
4:53 AM 59.0 °F 52.0 °F 78% 30.12 in 10.0 mi NW 6.9 mph - N/A   Clear
5:53 AM 57.0 °F 52.0 °F 83% 30.14 in 10.0 mi WNW 6.9 mph - N/A   Clear
6:53 AM 57.0 °F 52.0 °F 83% 30.16 in 10.0 mi NNW 9.2 mph - N/A   Clear
7:53 AM 60.1 °F 51.1 °F 72% 30.17 in 10.0 mi North 10.4 mph - N/A   Clear
8:53 AM 63.0 °F 52.0 °F 67% 30.18 in 10.0 mi North 8.1 mph - N/A   Clear
9:53 AM 66.0 °F 51.1 °F 59% 30.20 in 10.0 mi NNW 10.4 mph - N/A   Partly Cloudy
10:53 AM 69.1 °F 53.1 °F 57% 30.19 in 10.0 mi NNW 15.0 mph - N/A   Scattered Clouds
11:53 AM 72.0 °F 50.0 °F 46% 30.19 in 10.0 mi North 17.3 mph 24.2 mph N/A   Scattered Clouds
12:53 PM 72.0 °F 48.9 °F 44% 30.19 in 10.0 mi NNW 12.7 mph - N/A   Mostly Cloudy
1:53 PM 72.0 °F 45.0 °F 38% 30.18 in 10.0 mi North 15.0 mph 21.9 mph N/A   Mostly Cloudy
2:53 PM 73.0 °F 42.1 °F 33% 30.18 in 10.0 mi North 17.3 mph 25.3 mph N/A   Mostly Cloudy
3:53 PM 73.9 °F 43.0 °F 33% 30.17 in 10.0 mi North 16.1 mph 23.0 mph N/A   Scattered Clouds
4:53 PM 71.1 °F 43.0 °F 36% 30.17 in 10.0 mi NNW 19.6 mph - N/A   Scattered Clouds
5:53 PM 72.0 °F 43.0 °F 35% 30.17 in 10.0 mi North 13.8 mph - N/A   Scattered Clouds
6:53 PM 70.0 °F 42.1 °F 36% 30.18 in 10.0 mi North 15.0 mph 20.7 mph N/A   Partly Cloudy
7:53 PM 66.9 °F 44.1 °F 44% 30.19 in 10.0 mi North 9.2 mph 20.7 mph N/A   Partly Cloudy
8:53 PM 64.9 °F 43.0 °F 45% 30.21 in 10.0 mi North 10.4 mph - N/A   Partly Cloudy
9:53 PM 63.0 °F 44.1 °F 50% 30.22 in 10.0 mi North 8.1 mph - N/A   Clear
10:53 PM 61.0 °F 44.1 °F 54% 30.23 in 10.0 mi North 6.9 mph - N/A   Clear
11:53 PM 59.0 °F 44.1 °F 58% 30.23 in 10.0 mi North 5.8 mph - N/A   Clear